Flag for Sweden Weather past 2 weeks in Gothenburg, Sweden

Now
43 °F

Light rain. Low clouds.


Feels Like: 35 °F
Forecast: 43 / 46 °F
Wind: 16 mph from Southwest

Location: Gothenburg / Save

Current Time: Dec 21, 2014 at 10:03:39 PM

Latest Report: Dec 21, 2014 at 9:20 PM


Visibility: 4 mi

Pressure: 29.47 "Hg

Humidity: 100%

Dew point: 43 °F

Location of GothenburgLocation

Historic Weather in Gothenburg — Graph

°F

Gothenburg temperature yesterday

Maximum temperature yesterday: 43 °F (at 12:20 AM)
Minimum temperature yesterday: 28 °F (at 9:50 PM)
Average temperature yesterday: 39 °F

Past Weeks' High & Low Weather Summary

 TemperatureHumidityPressure
High46 °F (Dec 18, 2:20 PM)100% (Dec 6, 8:20 PM)30.07 "Hg (Dec 6, 8:20 PM)
Low27 °F (Dec 6, 8:20 PM)57% (Dec 13, 9:20 PM)28.91 "Hg (Dec 12, 6:50 PM)
Average40 °F84%29.48 "Hg
* Reported Dec 6 8:20 PM — Dec 21 8:50 PM, Gothenburg, Weather by CustomWeather, © 2014

Note: Actual official high and low records may vary slightly from our data, if they occured in-between our weather recording intervals... More about our weather records

Advertising

Gothenburg weather history for previous 24 hours

 ConditionsComfort  
Time TempWeatherWind HumidityBarometerVisibility
8:50 PM
Dec 21
43 °FLight rain. Low clouds.13 mph93%29.50 "Hg4 mi
8:20 PM43 °FDrizzle. Low clouds.8 mph93%29.53 "Hg5 mi
7:50 PM43 °FLight rain. Low clouds.15 mph93%29.53 "Hg3 mi
7:20 PM43 °FDrizzle. Low clouds.15 mph93%29.56 "Hg4 mi
6:50 PM41 °FLight rain. Low clouds.14 mph100%29.56 "Hg4 mi
6:20 PM41 °FLight rain. Low clouds.16 mph93%29.59 "Hg4 mi
5:50 PM41 °FDrizzle. Low clouds.15 mph93%29.62 "Hg4 mi
5:20 PM41 °FDrizzle. Mostly cloudy.14 mph93%29.65 "Hg4 mi
4:50 PM41 °FLight rain. Overcast.9 mph93%29.68 "Hg4 mi
4:20 PM39 °FLight rain. Mostly cloudy.8 mph93%29.71 "Hg5 mi
3:50 PM39 °FDrizzle. Low clouds.8 mph93%29.71 "Hg6 mi
3:20 PM39 °FDrizzle. Mostly cloudy.7 mph87%29.74 "Hg5 mi
2:58 PM39 °FDrizzle. Mostly cloudy.7 mph87%29.74 "Hg5 mi
2:20 PM39 °FDrizzle. Mostly cloudy.8 mph87%29.77 "Hg5 mi
1:50 PM39 °FDrizzle. Overcast.8 mph87%29.80 "HgN/A
1:20 PM41 °FDrizzle. Mostly cloudy.8 mph81%29.80 "HgN/A
12:50 PM41 °FScattered clouds.8 mph76%29.80 "HgN/A
11:50 AM41 °FSunny.8 mph70%29.83 "Hg10 mi
11:20 AM41 °FSunny.6 mph70%29.83 "Hg10 mi
10:50 AM39 °FSunny.6 mph70%29.83 "Hg10 mi
10:20 AM39 °FSunny.7 mph65%29.83 "Hg10 mi
9:50 AM39 °FSunny.7 mph65%29.83 "Hg10 mi
9:20 AM39 °FSunny.7 mph65%29.83 "Hg10 mi
8:50 AM39 °FClear.8 mph61%29.83 "Hg10 mi
8:20 AM39 °FClear.8 mph65%29.83 "Hg10 mi
7:50 AM39 °FClear.7 mph70%29.83 "Hg10 mi
7:20 AM39 °FClear.7 mph70%29.83 "Hg10 mi
6:50 AM41 °FClear.13 mph70%29.83 "Hg10 mi
6:20 AM41 °FClear.12 mph70%29.83 "Hg10 mi
5:50 AM41 °FClear.13 mph70%29.80 "Hg10 mi
5:20 AM41 °FClear.10 mph66%29.80 "Hg10 mi
4:50 AM34 °FClear.No wind81%29.80 "Hg10 mi
4:20 AM36 °FClear.2 mph75%29.80 "Hg10 mi
3:50 AM39 °FClear.6 mph75%29.80 "Hg10 mi
3:20 AM39 °FClear.7 mph75%29.80 "Hg10 mi
2:50 AM39 °FClear.6 mph75%29.77 "Hg10 mi
2:20 AM37 °FClear.6 mph75%29.77 "Hg10 mi
1:50 AM36 °FClear.3 mph75%29.74 "Hg10 mi
1:20 AM39 °FClear.7 mph70%29.74 "Hg10 mi
12:50 AM37 °FClear.7 mph75%29.74 "Hg10 mi
12:20 AM36 °FClear.5 mph87%29.71 "Hg10 mi
11:50 PM
Dec 20
28 °FClear.3 mph93%29.68 "Hg10 mi
11:20 PM28 °FClear.2 mph93%29.65 "Hg10 mi
10:20 PM32 °FClear.1 mph80%29.62 "Hg10 mi
Weather by CustomWeather, © 2014

See weather overviewHow to use our weather pages